This is the latest recevied weather packets stored in our database for station/object N5XJB. If no packets are shown the sender has not sent any weather packets the latest 10 day(s).
| Time | Temp. | Humidity | Pressure | Rain* | Wind** | Luminosity | Snow |
|---|---|---|---|---|---|---|---|
| 1777750583 | 25° C | 46% | 1020.6 hPa | 0 mm | - | 855 W/m² | - |
| 1777750280 | 24.44° C | 45% | 1021 hPa | 0 mm | - | 861 W/m² | - |
| 1777749976 | 24.44° C | 45% | 1020.6 hPa | 0 mm | - | 864 W/m² | - |
| 1777749674 | 23.89° C | 46% | 1020.6 hPa | 0 mm | - | 879 W/m² | - |
| 1777749370 | 23.89° C | 46% | 1020.6 hPa | 0 mm | - | 879 W/m² | - |
| 1777749068 | 24.44° C | 46% | 1020.6 hPa | 0 mm | - | 883 W/m² | - |
| 1777748765 | 23.89° C | 46% | 1020.6 hPa | 0 mm | - | 888 W/m² | - |
| 1777748463 | 23.89° C | 46% | 1021 hPa | 0 mm | - | 893 W/m² | - |
| 1777748157 | 23.33° C | 48% | 1021 hPa | 0 mm | - | 901 W/m² | - |
| 1777747854 | 23.33° C | 47% | 1021 hPa | 0 mm | - | 910 W/m² | - |
| 1777747550 | 23.33° C | 45% | 1021 hPa | 0 mm | - | 908 W/m² | - |
| 1777747246 | 23.33° C | 47% | 1021.3 hPa | 0 mm | - | 916 W/m² | - |
| 1777746943 | 23.33° C | 47% | 1021.3 hPa | 0 mm | - | 911 W/m² | - |
| 1777746639 | 22.78° C | 49% | 1021.3 hPa | 0 mm | - | 913 W/m² | - |
| 1777746334 | 23.33° C | 49% | 1021.3 hPa | 0 mm | - | 917 W/m² | - |
| 1777746030 | 23.33° C | 50% | 1021.3 hPa | 0 mm | - | 914 W/m² | - |
| 1777745728 | 23.33° C | 50% | 1021.3 hPa | 0 mm | - | 911 W/m² | - |
| 1777745427 | 23.89° C | 49% | 1021.3 hPa | 0 mm | - | 918 W/m² | - |
| 1777745123 | 23.33° C | 49% | 1021.6 hPa | 0 mm | - | 913 W/m² | - |
| 1777744820 | 22.78° C | 52% | 1021.6 hPa | 0 mm | - | 929 W/m² | - |
| 1777744514 | 23.33° C | 50% | 1021.6 hPa | 0 mm | - | 900 W/m² | - |
| 1777744210 | 22.78° C | 54% | 1021.6 hPa | 0 mm | - | 900 W/m² | - |
| 1777743908 | 22.78° C | 51% | 1021.6 hPa | 0 mm | - | 900 W/m² | - |
| 1777743604 | 22.22° C | 51% | 1022 hPa | 0 mm | - | 886 W/m² | - |
| 1777743301 | 22.22° C | 53% | 1021.6 hPa | 0 mm | - | 880 W/m² | - |
* Rain latest hour (hover to see other rain measurements)
** Current wind speed in m/s (hover to see current wind gust speed)